Вернуться в каталог

STARLINK-5799

АктивенСвязьVLEO
NORAD 56002·PAYLOAD·🇺🇸 United States

Запущен Mar 24, 2023 с Cape Canaveral Space Force Station

Loading…

Ближайшие Пролёты (ближайшие 24 часа)

TLE

СвежийSource: CelesTrak SupGP

Эпоха: Sep 15, 2026, 02:03 UTC

1 56002C 23042S   26258.08590278 -.00030471  00000+0 -11034-2 0  2581
2 56002  43.0039  69.8797 0001845 271.9266 188.7356 15.27601759    13

Отслеживайте STARLINK-5799 в реальном времени с AllMySat

Download on the App Store